www.pogodaiklimat.ru

Погода и климат >> Архив погоды >> Россия >> Чукотка >> Билибино


ПОГОДА в Билибино

  • Прогноз погоды в Билибино
  • Монитор погоды в Билибино
  • Климат города

АРХИВ ПОГОДЫ в Билибино

Время (UTC), дата Ветер
(напр.,м/с)
 
Видим.   Явления Облачность Т
(С)
Тd
(С)
f
(%)
Тe
(С)
Тes
(С)
Комфортность P
(гПа)
Po
(гПа)
Тmin
(С)
Tmax
(С)
R
(мм)
R24
(мм)
S
(см)
00 11.08 СВ 8-12
{15}
50 км {гроза, ливн. осадки} 10/8 600 м
[Cb calv Ac As]
+7.7 +3.8 76 +3 +3 1011.3 977.7
03 11.08 СВ 6-10
{14}
50 км 3/3 600 м
[Cu hum]
+9.9 +2.7 61 +7 +9 1014.7 981.2
06 11.08 СВ 5
{11}
50 км 1/1 600 м
[Cu hum]
+7.9 -0.7 55 +5 +6 1017.5 983.7
09 11.08 СВ 4
{9}
50 км ясно +4.1 -1.9 65 0 0 1020.0 985.6 +13.1
12 11.08 СВ 4
{9}
50 км ясно +1.9 -2.1 75 -3 -3 1022.0 987.2
15 11.08 СВ 2
{7}
50 км 1/0
[Ci fib]
-1.6 -2.8 92 -6 -6 1023.0 987.8
18 11.08 СВ 3
{7}
50 км 8/0
[Ci fib]
-0.2 -2.9 82 -5 -5 1023.1 988.0
21 11.08 СВ 5
{8}
50 км 8/0
[Ac trans Ci fib]
+4.4 -2.3 62 0 +1 1021.7 987.3 -2.5
00 12.08 СВ 2
{8}
50 км 1/0
[Cs]
+8.4 -2.2 47 +7 +14 1019.4 985.5
03 12.08 В 2
{10}
50 км 3/0
[Ac lent Cs]
+10.9 -4.4 34 +10 +16 1017.0 983.4
06 12.08 В 1
{6}
50 км 4/0
[Ac trans Cs]
+12.4 -4.4 31 +13 +15 1015.5 982.2
09 12.08 СВ 4
{7}
50 км 10/0
[Ac trans Cs]
+7.4 -1.2 54 +4 +4 1015.9 982.0 +12.8
12 12.08 С 6
{9}
50 км 4/0
[Ac As]
+4.2 -0.7 70 -1 -1 1016.3 982.1
15 12.08 СВ 6-10
{10}
50 км 9/8 600 м
[Sc Ac lent]
+4.1 -0.5 72 -1 -1 1016.3 982.1
18 12.08 СВ 7
{11}
50 км 3/3 600 м
[Sc]
+3.2 -0.3 78 -3 -3 1017.2 982.7
21 12.08 СВ 6
{11}
50 км ясно +7.3 -0.5 58 +3 +5 1016.9 982.9 +2.4
00 13.08 В 4
{9}
50 км 1/1 600 м
[Cu hum]
+11.2 -1.2 42 +9 +14 1016.5 983.0
03 13.08 В 5
{10}
50 км 3/1 600 м
[Cu hum Ci fib]
+12.8 -3.0 33 +11 +14 1016.4 983.0
06 13.08 В 4
{9}
50 км ясно +12.8 -4.1 31 +11 +13 1016.7 983.3
09 13.08 СВ 4
{8}
50 км 1/0
[Ci ing]
+9.0 -3.6 41 +7 +7 1018.6 984.9 +13.4
12 13.08 С 5
{10}
50 км 4/0
[Ci ing]
+6.4 -3.5 49 +3 +3 1020.4 986.2
15 13.08 СВ 1
{10}
50 км 3/0
[Ci ing]
+3.0 -3.1 64 +2 +2 1021.4 986.8
18 13.08 СВ 2
{7}
50 км 6/0
[Ci fib]
+1.8 -3.6 67 -1 -1 1022.4 987.6
21 13.08 СВ 4
{7}
50 км 3/0
[Ci fib]
+7.8 -2.2 49 +5 +7 1021.4 987.3 +0.7
00 14.08 З 1
{5}
50 км 3/0
[Ci fib]
+14.7 -4.4 26 +16 +23 1019.6 986.4
03 14.08 Ю 3
{7}
50 км 3/1 600 м
[Cu hum Ci fib]
+16.8 -5.4 21 +17 +21 1017.6 984.7
06 14.08 Ю 3
{7}
50 км 8/0
[Ci]
+17.8 -3.6 23 +18 +19 1016.9 984.1
09 14.08 С 1
{6}
50 км 8/3 1000 м
[Cb cap Ci fib]
+9.6 +5.1 74 +9 +9 1017.6 984.0 +17.8
12 14.08 штиль 0
{1}
50 км 6/4 600 м
[Sc Ci fib]
+5.2 +3.8 91 +4 +4 1018.5 984.3
15 14.08 штиль 0
{1}
50 км 6/5 600 м
[Sc Ci fib]
-0.9 -1.1 99 -2 -2 1019.5 984.5
18 14.08 штиль 0
{2}
50 км 8/8 600 м
[Sc]
+2.2 +1.9 98 +1 +1 1019.5 984.9
21 14.08 Ю 1
{2}
50 км 9/9 1000 м
[Sc]
+9.8 +3.0 63 +10 +10 1018.6 985.0 -0.9
00 15.08 СЗ 4
{10}
50 км 10/6 1000 м
[Sc Ac trans Cs]
+13.7 +4.3 53 +12 +13 1018.0 984.9
03 15.08 З 2
{8}
50 км 10/8 1000 м
[Cu Sc Ac As]
+12.6 +6.1 65 +12 +12 1017.9 984.7
06 15.08 З 1
{5}
50 км в посл. час ливневой дождь 9/9 600 м
[Cb cap]
+10.6 +9.7 94 +10 +10 1017.9 984.4
09 15.08 ЮЗ 3
{5}
50 км {ливн. осадки} 9/9 600 м
[Cb cap]
+11.0 +9.0 87 +9 +9 1017.6 984.1 +16.2 2
12 15.08 З 1
{6}
50 км {ливн. осадки} 9/9 600 м
[Cb cap]
+10.7 +9.9 95 +10 +10 1016.8 983.3
15 15.08 ЮЗ 2
{3}
50 км 9/9 600 м
[Cb cap]
+10.5 +10.2 98 +9 +9 1014.9 981.5
18 15.08 штиль 0
{3}
50 км 9/5 600 м
[Cu med, cong Ac lent Cs]
+7.3 +6.8 97 +6 +6 1014.1 980.2
21 15.08 Ю 2
{3}
50 км 10/3 600 м
[Cu med, cong Ac lent Cs]
+12.9 +10.2 84 +12 +13 1011.3 978.3 +7.0
00 16.08 ЮЗ 3
{5}
50 км 9/1 600 м
[Cu hum Ac trans Cs]
+17.5 +10.2 62 +18 +20 1007.3 974.9
03 16.08 З 5
{8}
50 км 10/3 1000 м
[Sc Ac trans Cs]
+21.8 +5.3 34 +22 +23 комфорт 1003.6 971.8
06 16.08 Ю 1
{9}
50 км 9/6 1000 м
[Sc Ac trans]
+20.5 +8.0 44 +23 +23 комфорт 1001.6 969.8
09 16.08 Ю 1
{4}
50 км 10/9 1000 м
[Sc Ac trans]
+16.0 +10.7 71 +17 +17 1000.6 968.2 +23.5
12 16.08 З 1
{3}
50 км 10/10 1000 м
[Sc]
+14.9 +10.3 74 +15 +15 999.5 967.1
15 16.08 Ю 3
{7}
50 км 10/10 1000 м
[Sc]
+14.9 +12.0 83 +14 +14 998.8 966.4
18 16.08 Ю 1
{5}
20 км {ливн. осадки} 10/10 600 м
[Sc]
+13.6 +13.2 97 +14 +14 998.3 965.8
21 16.08 СВ 6
{10}
10 км слабый дождь 10/9 600 м
[Sc As op]
+10.4 +8.4 87 +7 +7 1000.1 967.2 +10.4 0.1
00 17.08 СВ 4
{9}
20 км {дождь} 10/10 1000 м
[Sc]
+9.7 +6.2 79 +7 +7 1002.1 969.0 +9.6
03 17.08 Ю 1
{7}
50 км 10/10 1000 м
[Sc]
+9.0 +6.8 86 +8 +8 1003.6 970.4
06 17.08 ЮВ 1
{5}
50 км 10/5 1000 м
[Sc Ac und]
+8.8 +5.3 79 +8 +9 1005.2 971.9
09 17.08 ЮЗ 1
{3}
50 км 10/10 1000 м
[Sc]
+7.3 +4.1 80 +6 +6 1006.5 973.0 +13.7 0.0
12 17.08 СЗ 1
{3}
20 км 10/10 1000 м
[Sc]
+6.0 +3.6 85 +5 +5 1008.0 974.2
15 17.08 З 4
{9}
50 км 9/9 600 м
[Sc]
+5.2 +1.7 78 +1 +1 1008.8 974.9
18 17.08 З 3
{11}
50 км 9/9 600 м
[Sc]
+2.7 +0.3 84 -1 -1 1011.1 976.7
21 17.08 З 2
{6}
50 км 10/10 600 м
[Sc]
+3.9 +0.8 80 +1 +1 1012.3 978.2 +2.7

 

Местоположение метеостанции Билибино (Чукотка, Россия): широта 68.05 долгота 166.40 высота над уровнем моря 280 м.

В архиве по умолчанию представлена погода в Билибино за последнюю неделю. Архивные данные за месяц целиком и за предыдущие месяцы, начиная с января 2011 года, Вы можете получить, выбрав интересующий диапазон дат из раскрывающегося списка и нажав кнопку "Ввод!".

Внимание! Время в таблицах - всемирное. Для получения местного времени необходимо прибавить поправку, которая в Билибино равна 12 ч.

Смотрите также архив погоды в соседних городах и на ближайших метеорологических станциях:

Погода на Островном (Чукотка, Россия) (96 км)
Погода в Илирнее (Чукотка, Россия) (109 км)
Погода в Раучуе (Чукотка, Россия) (161 км)
Погода в Баимке (Чукотка, Россия) (194 км)
Погода в Чауне (Чукотка, Россия) (198 км)
Погода в Анюйске (Чукотка, Россия) (205 км)
Погода на Айон Острове (Чукотка, Россия) (217 км)
Погода в Константиновской (Чукотка, Россия) (220 км)
Погода в Черском (Якутия, Россия) (222 км)
Погода в Певеке (Чукотка, Россия) (238 км)

Пояснения к столбцам:

Ветер - указаны скорость ветра в м/с - средняя за 10 мин, порывы в срок и между сроками (в фигурных скобках) и направление, откуда дует ветер: С - северный, СВ - северо-восточный, В - восточный, ЮВ - юго-восточный, Ю - южный, ЮЗ - юго-западный, З - западный, СЗ - северо-западный.
Видимость - горизонтальная дальность видимости в метрах или километрах. При видимости от 1 до 10 км при отсутствии осадков обычно наблюдается дымка, при ухудшении видимости до 1 км и менее - туман. В сухую погоду видимость может ухудшаться дымом, пылью или мглою.
Явления - указаны атмосферные явления, наблюдавшиеся в срок или в последний час перед сроком; фигурными скобками обозначены явления, наблюдавшиеся между сроками (за 1-3 часа до срока); квадратными скобками обозначены град или гололедные отложения с указанием их диаметра в мм.
Облачность - указаны через наклонную черту общая и нижняя облачность в баллах и высота нижней границы облаков в метрах; квадратными скобками обозначены формы облаков: Ci - перистые, Cs - перисто-слоистые, Cc - перисто-кучевые, Ac - высококучевые, As - высокослоистые, Sc - слоисто-кучевые, Ns - слоисто-дождевые, Cu - кучевые, Cb - кучево-дождевые. Подробнее классификацию облаков см. в Атласе облаков (PDF).
T - Температура воздуха - температура, измеренная на высоте 2 м над землей.
Td - Температура точки росы - температура, при понижении до которой содержащийся в воздухе водяной пар достигнет насыщения.
f - Относительная влажность воздуха - влажноcть воздуха, измеренная на высоте 2 м над землей.
Te - Эффективная температура - температура, которую ощущает одетый по сезону человек в тени. Характеристика душности погоды. При расчете учитывается влияние влажности воздуха и скорости ветра на теплоощущения человека.
Tes - Эффективная температура на солнце - температура, которую ощущает человек, с поправкой на солнечный нагрев. Характеристика знойности погоды. Зависит от высоты солнца над горизонтом, облачности и скорости ветра. Ночью, в пасмурную погоду, а также при ветре 12 м/с и более поправка равна нулю.
P - Атмосферное давление - приведенное к уровню моря атмосферное давление.
Po - Атмосферное давление - измеренное на уровне метеостанции атмосферное давление.
Tmin - Минимальная температура - минимум температуры воздуха на высоте 2 м над землей.
Tmax - Максимальная температура - максимум температуры воздуха на высоте 2 м над землей.
R - Количество осадков - Количество выпавших осадков за период времени, мм. При наведении курсора мыши на число - период времени, за который выпало указанное количество осадков.
R24 - Количество осадков - Количество выпавших осадков за 24 часа, мм.
S - Снежный покров - Высота снежного покрова, см. При наведении курсора мыши на число - состояние снежного покрова и степень покрытия местности в баллах.